sat.trackr.live / text

‹ back to catalog

QIANFAN-101

NORAD 66043 · 2025-233L

PAYLOAD ACTIVE UNKNOWN

§ Identity

Operator
Country
PRC
Launch date
2025-10-17
Launch site
TAISC
Launch vehicle
Mass (kg)
RCS (m²)

External: N2YO · Heavens-Above · Gunter

§ Orbital elements

Epoch: 2026-09-20T09:22:21.488736Z

Period
100.92 min
Inclination
89.0061°
Eccentricity
0.0015006
Mean motion
14.26861767 rev/d
Perigee alt
791.5 km
Apogee alt
813.0 km
Semi-major
7,180.4 km
B*
1.0183e-4
RAAN
29.6452°
Arg perigee
183.5182°
Mean anomaly
176.5909°
Rev number
4,820

§ Raw data

QIANFAN-1011 66043U 25233L   26263.39052649  .00000262  00000+0  10183-3 0  99962 66043  89.0061  29.6452 0015006 183.5182 176.5909 14.26861767 48202

JSON: /api/v1/satellites/66043 · /tle

For live sub-satellite position, see the globe view (requires WebGL).

§ Visibility from observer

Set your observer location to see the next 7 days of passes ≥ 10°. The values pass through the URL so the page stays shareable.

No JS? Fill the form by hand. The geolocation button needs JavaScript.